UAE351 YSSY-YMML

Flight info

Callsign UAE351
Flight time 1h 7m
Altitude 40000
Route WOL H65 LEECE Q29 ML
Aircraft B77L/H-SDE1E2E3FGHIJ2J3J4J5M1RWXY/LB1D1

Departure

Time 2026-05-05 17:16
Airport Sydney Kingsford Smith International Airport (YSSY)

Arrival

Time 2026-05-05 18:24
Airport Melbourne Airport (YMML)
Time Latitude Longitude Altitude Speed Heading
2026-05-05 16:22 -33.93478 151.16798 25 ft 0 kts 257°
2026-05-05 16:58 -33.93474 151.16818 31 ft 4 kts 257°
2026-05-05 16:58 -33.93470 151.16839 31 ft 4 kts 256°
2026-05-05 16:58 -33.93457 151.16877 31 ft 4 kts 229°
2026-05-05 16:59 -33.93444 151.16892 31 ft 4 kts 207°
2026-05-05 16:59 -33.93419 151.16898 31 ft 1 kts 167°
2026-05-05 16:59 -33.93416 151.16897 31 ft 0 kts 167°
2026-05-05 17:07 -33.93425 151.16899 30 ft 4 kts 167°
2026-05-05 17:08 -33.93479 151.16919 28 ft 12 kts 151°
2026-05-05 17:08 -33.93503 151.17024 27 ft 14 kts 82°
2026-05-05 17:08 -33.93525 151.17112 26 ft 12 kts 148°
2026-05-05 17:08 -33.93592 151.17139 27 ft 10 kts 173°
2026-05-05 17:09 -33.93660 151.17148 29 ft 10 kts 175°
2026-05-05 17:09 -33.93743 151.17162 24 ft 14 kts 171°
2026-05-05 17:09 -33.93847 151.17190 20 ft 16 kts 166°
2026-05-05 17:09 -33.93957 151.17221 24 ft 16 kts 168°
2026-05-05 17:10 -33.94066 151.17247 28 ft 16 kts 168°
2026-05-05 17:10 -33.94139 151.17269 26 ft 10 kts 164°
2026-05-05 17:10 -33.94208 151.17292 27 ft 11 kts 165°
2026-05-05 17:10 -33.94282 151.17310 28 ft 11 kts 170°
2026-05-05 17:11 -33.94355 151.17325 29 ft 11 kts 170°
2026-05-05 17:11 -33.94429 151.17342 31 ft 11 kts 168°
2026-05-05 17:11 -33.94509 151.17364 31 ft 13 kts 167°
2026-05-05 17:11 -33.94598 151.17389 31 ft 14 kts 167°
2026-05-05 17:12 -33.94695 151.17415 30 ft 15 kts 168°
2026-05-05 17:12 -33.94808 151.17443 27 ft 19 kts 168°
2026-05-05 17:12 -33.94944 151.17478 27 ft 21 kts 168°
2026-05-05 17:12 -33.95087 151.17514 27 ft 21 kts 168°
2026-05-05 17:13 -33.95220 151.17549 25 ft 19 kts 167°
2026-05-05 17:13 -33.95351 151.17584 24 ft 19 kts 167°
2026-05-05 17:13 -33.95483 151.17618 28 ft 19 kts 168°
2026-05-05 17:13 -33.95614 151.17652 27 ft 19 kts 168°
2026-05-05 17:14 -33.95744 151.17685 29 ft 19 kts 168°
2026-05-05 17:14 -33.95879 151.17719 27 ft 21 kts 168°
2026-05-05 17:14 -33.96020 151.17755 28 ft 20 kts 167°
2026-05-05 17:14 -33.96146 151.17789 28 ft 19 kts 168°
2026-05-05 17:15 -33.96277 151.17823 27 ft 18 kts 168°
2026-05-05 17:15 -33.96400 151.17858 28 ft 18 kts 156°
2026-05-05 17:15 -33.96434 151.17971 28 ft 15 kts 83°
2026-05-05 17:15 -33.96404 151.18042 29 ft 10 kts 33°
2026-05-05 17:16 -33.96335 151.18041 28 ft 9 kts 347°
2026-05-05 17:16 -33.96061 151.17966 24 ft 99 kts 347°
2026-05-05 17:16 -33.95012 151.17670 364 ft 183 kts 347°
2026-05-05 17:16 -33.93772 151.17357 2058 ft 190 kts 348°
2026-05-05 17:17 -33.92362 151.16968 2863 ft 223 kts 341°
2026-05-05 17:17 -33.91057 151.15738 3298 ft 259 kts 301°
2026-05-05 17:17 -33.90307 151.13714 4208 ft 269 kts 293°
2026-05-05 17:17 -33.89407 151.11698 5354 ft 276 kts 302°
2026-05-05 17:18 -33.88382 151.09758 6763 ft 276 kts 303°
2026-05-05 17:18 -33.87337 151.07820 8048 ft 278 kts 303°
2026-05-05 17:18 -33.86284 151.05866 9377 ft 279 kts 303°
2026-05-05 17:18 -33.85235 151.03915 10598 ft 283 kts 302°
2026-05-05 17:19 -33.84135 151.01859 11274 ft 305 kts 301°
2026-05-05 17:19 -33.83324 150.99403 11470 ft 334 kts 278°
2026-05-05 17:19 -33.83613 150.96577 12232 ft 352 kts 248°
2026-05-05 17:19 -33.84950 150.94107 13338 ft 361 kts 227°
2026-05-05 17:20 -33.86932 150.92263 14513 ft 367 kts 210°
2026-05-05 17:20 -33.89339 150.91225 15619 ft 375 kts 192°
2026-05-05 17:20 -33.91947 150.91191 16660 ft 386 kts 172°
2026-05-05 17:20 -33.94518 150.92262 17648 ft 398 kts 154°
2026-05-05 17:21 -33.96803 150.94181 18579 ft 403 kts 142°
2026-05-05 17:21 -33.99094 150.96144 18973 ft 407 kts 156°
2026-05-05 17:21 -34.01832 150.96952 19646 ft 408 kts 182°
2026-05-05 17:22 -34.07023 150.94785 21431 ft 401 kts 214°
2026-05-05 17:22 -34.09395 150.92926 22172 ft 409 kts 218°
2026-05-05 17:22 -34.11618 150.90802 22727 ft 419 kts 222°
2026-05-05 17:22 -34.13639 150.88360 23366 ft 422 kts 227°
2026-05-05 17:23 -34.15642 150.85692 23501 ft 436 kts 228°
2026-05-05 17:23 -34.17593 150.83009 24136 ft 434 kts 231°
2026-05-05 17:23 -34.19580 150.80284 25396 ft 425 kts 232°
2026-05-05 17:23 -34.21545 150.77620 26366 ft 425 kts 232°
2026-05-05 17:24 -34.23493 150.75010 27039 ft 431 kts 232°
2026-05-05 17:24 -34.25547 150.72284 27701 ft 438 kts 231°
2026-05-05 17:24 -34.27622 150.69552 28395 ft 443 kts 231°
2026-05-05 17:24 -34.29713 150.66813 29120 ft 447 kts 232°
2026-05-05 17:25 -34.31839 150.64032 29835 ft 450 kts 232°
2026-05-05 17:25 -34.33243 150.62195 30267 ft 453 kts 232°
2026-05-05 17:25 -34.36099 150.58455 30978 ft 458 kts 232°
2026-05-05 17:25 -34.38302 150.55569 31517 ft 462 kts 233°
2026-05-05 17:26 -34.40453 150.52748 32009 ft 465 kts 233°
2026-05-05 17:26 -34.42657 150.49856 32536 ft 467 kts 233°
2026-05-05 17:26 -34.44863 150.46958 33165 ft 466 kts 233°
2026-05-05 17:26 -34.47052 150.44083 33836 ft 464 kts 233°
2026-05-05 17:27 -34.49237 150.41209 34401 ft 463 kts 234°
2026-05-05 17:27 -34.51414 150.38340 34906 ft 462 kts 234°
2026-05-05 17:27 -34.53593 150.35467 35436 ft 461 kts 234°
2026-05-05 17:27 -34.55759 150.32609 35962 ft 459 kts 234°
2026-05-05 17:28 -34.57920 150.29755 36454 ft 458 kts 234°
2026-05-05 17:28 -34.60067 150.26915 36951 ft 457 kts 234°
2026-05-05 17:28 -34.62215 150.24072 37436 ft 456 kts 234°
2026-05-05 17:28 -34.64357 150.21235 37921 ft 455 kts 234°
2026-05-05 17:29 -34.66493 150.18403 38386 ft 454 kts 234°
2026-05-05 17:29 -34.68640 150.15554 38819 ft 454 kts 234°
2026-05-05 17:29 -34.70744 150.12759 39114 ft 455 kts 234°
2026-05-05 17:29 -34.72882 150.09917 39406 ft 456 kts 234°
2026-05-05 17:30 -34.75024 150.07067 39753 ft 455 kts 234°
2026-05-05 17:30 -34.77165 150.04221 40049 ft 456 kts 234°
2026-05-05 17:30 -34.79314 150.01356 40118 ft 461 kts 234°
2026-05-05 17:31 -34.83635 149.95586 40180 ft 460 kts 234°
2026-05-05 17:31 -34.87915 149.89876 40178 ft 454 kts 234°
2026-05-05 17:32 -34.92156 149.84203 40195 ft 452 kts 234°
2026-05-05 17:32 -34.96356 149.78571 40183 ft 452 kts 234°
2026-05-05 17:33 -35.00584 149.72891 40193 ft 453 kts 234°
2026-05-05 17:33 -35.04821 149.67192 40175 ft 454 kts 234°
2026-05-05 17:34 -35.09063 149.61476 40196 ft 455 kts 233°
2026-05-05 17:34 -35.13320 149.55731 40190 ft 456 kts 233°
2026-05-05 17:35 -35.17582 149.49972 40183 ft 457 kts 233°
2026-05-05 17:35 -35.21850 149.44192 40167 ft 458 kts 233°
2026-05-05 17:36 -35.26123 149.38397 40188 ft 458 kts 233°
2026-05-05 17:36 -35.30390 149.32601 40189 ft 458 kts 233°
2026-05-05 17:37 -35.34646 149.26808 40184 ft 457 kts 233°
2026-05-05 17:37 -35.38897 149.21015 40202 ft 457 kts 233°
2026-05-05 17:38 -35.43152 149.15205 40187 ft 457 kts 233°
2026-05-05 17:38 -35.47393 149.09402 40179 ft 456 kts 233°
2026-05-05 17:39 -35.51589 149.03653 40161 ft 456 kts 233°
2026-05-05 17:39 -35.55804 148.97868 40179 ft 455 kts 233°
2026-05-05 17:40 -35.60025 148.92063 40175 ft 455 kts 233°
2026-05-05 17:40 -35.64240 148.86257 40171 ft 455 kts 233°
2026-05-05 17:41 -35.68452 148.80445 40179 ft 455 kts 233°
2026-05-05 17:41 -35.71949 148.75614 40171 ft 455 kts 233°
2026-05-05 17:42 -35.76168 148.69775 40180 ft 455 kts 233°
2026-05-05 17:42 -35.80361 148.63960 40192 ft 454 kts 233°
2026-05-05 17:43 -35.84557 148.58132 40190 ft 454 kts 233°
2026-05-05 17:43 -35.88675 148.52272 40204 ft 452 kts 237°
2026-05-05 17:44 -35.92221 148.45944 40204 ft 449 kts 240°
2026-05-05 17:44 -35.95760 148.39591 40200 ft 449 kts 239°
2026-05-05 17:45 -35.99313 148.33251 40225 ft 449 kts 239°
2026-05-05 17:45 -36.02868 148.26906 40210 ft 449 kts 239°
2026-05-05 17:46 -36.06422 148.20550 40220 ft 449 kts 239°
2026-05-05 17:46 -36.09970 148.14188 40215 ft 450 kts 239°
2026-05-05 17:47 -36.13522 148.07818 40214 ft 449 kts 239°
2026-05-05 17:47 -36.17078 148.01455 40205 ft 449 kts 239°
2026-05-05 17:48 -36.20629 147.95090 40208 ft 449 kts 239°
2026-05-05 17:48 -36.24175 147.88717 40207 ft 449 kts 239°
2026-05-05 17:49 -36.27691 147.82385 40229 ft 449 kts 239°
2026-05-05 17:49 -36.31178 147.76096 40209 ft 449 kts 239°
2026-05-05 17:50 -36.34706 147.69718 40219 ft 448 kts 239°
2026-05-05 17:50 -36.38166 147.63440 40214 ft 448 kts 239°
2026-05-05 17:51 -36.41687 147.57039 40227 ft 449 kts 239°
2026-05-05 17:51 -36.45205 147.50632 40216 ft 449 kts 239°
2026-05-05 17:52 -36.48716 147.44224 40214 ft 449 kts 239°
2026-05-05 17:52 -36.52198 147.37859 40211 ft 448 kts 239°
2026-05-05 17:53 -36.55703 147.31441 40217 ft 448 kts 239°
2026-05-05 17:53 -36.59199 147.25026 40217 ft 448 kts 239°
2026-05-05 17:54 -36.62699 147.18590 40216 ft 448 kts 239°
2026-05-05 17:54 -36.66193 147.12154 40223 ft 448 kts 239°
2026-05-05 17:55 -36.69686 147.05709 40220 ft 449 kts 239°
2026-05-05 17:55 -36.73176 146.99263 40216 ft 449 kts 239°
2026-05-05 17:55 -36.74936 146.96010 39690 ft 458 kts 239°
2026-05-05 17:56 -36.76712 146.92724 39067 ft 452 kts 239°
2026-05-05 17:56 -36.78409 146.89596 38508 ft 428 kts 239°
2026-05-05 17:56 -36.80035 146.86596 37982 ft 407 kts 239°
2026-05-05 17:56 -36.81577 146.83745 37534 ft 387 kts 239°
2026-05-05 17:57 -36.83071 146.80970 37166 ft 386 kts 239°
2026-05-05 17:57 -36.84584 146.78147 36766 ft 398 kts 238°
2026-05-05 17:57 -36.86160 146.75200 36337 ft 418 kts 238°
2026-05-05 17:57 -36.87799 146.72141 35860 ft 426 kts 238°
2026-05-05 17:58 -36.89447 146.69071 35368 ft 424 kts 237°
2026-05-05 17:58 -36.91086 146.66017 34871 ft 421 kts 237°
2026-05-05 17:58 -36.92710 146.62991 34396 ft 418 kts 237°
2026-05-05 17:58 -36.94324 146.59979 33884 ft 414 kts 236°
2026-05-05 17:59 -36.95920 146.56996 33363 ft 411 kts 236°
2026-05-05 17:59 -36.97500 146.54041 32884 ft 407 kts 236°
2026-05-05 17:59 -36.99064 146.51111 32434 ft 403 kts 236°
2026-05-05 17:59 -37.00612 146.48208 31965 ft 399 kts 236°
2026-05-05 18:00 -37.02141 146.45341 31523 ft 395 kts 236°
2026-05-05 18:00 -37.03661 146.42486 31088 ft 391 kts 236°
2026-05-05 18:00 -37.05165 146.39660 30652 ft 388 kts 235°
2026-05-05 18:00 -37.06640 146.36886 30222 ft 385 kts 235°
2026-05-05 18:01 -37.08105 146.34130 29726 ft 382 kts 235°
2026-05-05 18:01 -37.09570 146.31365 29268 ft 378 kts 235°
2026-05-05 18:01 -37.11006 146.28652 28853 ft 374 kts 235°
2026-05-05 18:01 -37.12416 146.25984 28418 ft 370 kts 235°
2026-05-05 18:02 -37.13827 146.23314 28008 ft 367 kts 235°
2026-05-05 18:02 -37.15225 146.20666 27576 ft 364 kts 235°
2026-05-05 18:02 -37.16615 146.18029 27156 ft 361 kts 235°
2026-05-05 18:02 -37.17992 146.15418 26760 ft 358 kts 235°
2026-05-05 18:03 -37.19366 146.12808 26363 ft 356 kts 235°
2026-05-05 18:03 -37.20689 146.10296 25985 ft 353 kts 235°
2026-05-05 18:03 -37.22042 146.07723 25589 ft 351 kts 235°
2026-05-05 18:03 -37.23375 146.05186 25203 ft 349 kts 235°
2026-05-05 18:04 -37.24716 146.02631 24814 ft 347 kts 235°
2026-05-05 18:04 -37.26041 146.00107 24422 ft 346 kts 235°
2026-05-05 18:04 -37.27357 145.97596 24057 ft 344 kts 235°
2026-05-05 18:04 -37.28659 145.95112 23635 ft 332 kts 235°
2026-05-05 18:05 -37.29889 145.92760 23203 ft 312 kts 235°
2026-05-05 18:05 -37.31044 145.90554 22863 ft 294 kts 235°
2026-05-05 18:05 -37.32151 145.88451 22534 ft 283 kts 235°
2026-05-05 18:05 -37.33237 145.86395 22255 ft 289 kts 235°
2026-05-05 18:06 -37.34344 145.84298 21952 ft 309 kts 235°
2026-05-05 18:06 -37.35145 145.82779 21725 ft 323 kts 236°
2026-05-05 18:06 -37.36832 145.79573 21202 ft 334 kts 236°
2026-05-05 18:06 -37.38096 145.77166 20797 ft 320 kts 236°
2026-05-05 18:07 -37.39290 145.74891 20417 ft 303 kts 236°
2026-05-05 18:07 -37.40407 145.72762 20087 ft 291 kts 236°
2026-05-05 18:07 -37.41512 145.70654 19771 ft 288 kts 236°
2026-05-05 18:07 -37.42647 145.68491 19458 ft 300 kts 236°
2026-05-05 18:08 -37.43845 145.66205 19119 ft 324 kts 236°
2026-05-05 18:08 -37.44987 145.63783 18720 ft 325 kts 243°
2026-05-05 18:08 -37.45833 145.61204 18307 ft 311 kts 251°
2026-05-05 18:08 -37.46474 145.58686 17906 ft 293 kts 251°
2026-05-05 18:09 -37.47097 145.56315 17549 ft 280 kts 250°
2026-05-05 18:09 -37.47700 145.54041 17221 ft 275 kts 250°
2026-05-05 18:09 -37.48319 145.51707 16904 ft 281 kts 250°
2026-05-05 18:09 -37.48966 145.49276 16582 ft 306 kts 250°
2026-05-05 18:10 -37.49650 145.46696 16199 ft 315 kts 250°
2026-05-05 18:10 -37.50335 145.44105 15794 ft 303 kts 250°
2026-05-05 18:10 -37.50978 145.41666 15429 ft 285 kts 250°
2026-05-05 18:10 -37.51586 145.39356 15091 ft 270 kts 250°
2026-05-05 18:11 -37.52169 145.37144 14785 ft 264 kts 250°
2026-05-05 18:11 -37.52750 145.34944 14475 ft 269 kts 250°
2026-05-05 18:11 -37.53367 145.32614 14175 ft 293 kts 250°
2026-05-05 18:11 -37.54023 145.30130 13759 ft 300 kts 250°
2026-05-05 18:12 -37.54666 145.27683 13360 ft 286 kts 250°
2026-05-05 18:12 -37.55269 145.25380 12999 ft 268 kts 250°
2026-05-05 18:12 -37.55830 145.23238 12687 ft 254 kts 250°
2026-05-05 18:12 -37.56379 145.21145 12396 ft 250 kts 250°
2026-05-05 18:13 -37.56934 145.19033 12130 ft 258 kts 250°
2026-05-05 18:13 -37.57512 145.16833 11815 ft 270 kts 250°
2026-05-05 18:13 -37.58091 145.14620 11452 ft 262 kts 250°
2026-05-05 18:13 -37.58662 145.12436 11142 ft 264 kts 250°
2026-05-05 18:14 -37.59238 145.10233 10825 ft 267 kts 250°
2026-05-05 18:14 -37.59819 145.08007 10531 ft 265 kts 250°
2026-05-05 18:14 -37.60372 145.05882 10324 ft 243 kts 250°
2026-05-05 18:14 -37.60864 145.03982 10107 ft 216 kts 250°
2026-05-05 18:15 -37.61310 145.02266 9981 ft 200 kts 250°
2026-05-05 18:15 -37.61569 145.00548 9444 ft 205 kts 274°
2026-05-05 18:15 -37.60925 144.98982 8876 ft 205 kts 312°
2026-05-05 18:15 -37.59893 144.97835 8413 ft 194 kts 312°
2026-05-05 18:16 -37.58952 144.96649 7718 ft 193 kts 310°
2026-05-05 18:16 -37.58012 144.95423 6805 ft 199 kts 311°
2026-05-05 18:16 -37.57046 144.94157 5831 ft 201 kts 311°
2026-05-05 18:16 -37.56087 144.92897 4897 ft 202 kts 312°
2026-05-05 18:17 -37.55130 144.91634 3956 ft 202 kts 312°
2026-05-05 18:17 -37.54181 144.90380 3380 ft 187 kts 311°
2026-05-05 18:17 -37.53344 144.89274 3120 ft 163 kts 311°
2026-05-05 18:17 -37.52631 144.88331 2991 ft 137 kts 310°
2026-05-05 18:18 -37.51959 144.87438 3009 ft 143 kts 311°
2026-05-05 18:18 -37.51268 144.86520 3032 ft 145 kts 311°
2026-05-05 18:18 -37.50576 144.85600 3006 ft 144 kts 311°
2026-05-05 18:18 -37.49919 144.84675 2994 ft 140 kts 300°
2026-05-05 18:19 -37.49733 144.83548 3037 ft 135 kts 257°
2026-05-05 18:19 -37.49959 144.82374 3003 ft 138 kts 254°
2026-05-05 18:19 -37.50379 144.81330 2987 ft 133 kts 219°
2026-05-05 18:19 -37.51188 144.81075 3001 ft 132 kts 172°
2026-05-05 18:20 -37.52119 144.81313 3011 ft 140 kts 179°
2026-05-05 18:20 -37.52740 144.81252 2995 ft 138 kts 188°
2026-05-05 18:20 -37.54038 144.81398 2740 ft 141 kts 169°
2026-05-05 18:20 -37.54984 144.81590 2554 ft 139 kts 175°
2026-05-05 18:21 -37.55934 144.81748 2365 ft 138 kts 174°
2026-05-05 18:21 -37.56832 144.81910 2182 ft 137 kts 174°
2026-05-05 18:21 -37.57773 144.82084 2004 ft 136 kts 173°
2026-05-05 18:21 -37.58713 144.82259 1815 ft 137 kts 174°
2026-05-05 18:22 -37.59641 144.82432 1626 ft 137 kts 173°
2026-05-05 18:22 -37.60589 144.82609 1439 ft 138 kts 173°
2026-05-05 18:22 -37.61539 144.82787 1265 ft 140 kts 173°
2026-05-05 18:22 -37.62505 144.82993 1016 ft 140 kts 172°
2026-05-05 18:23 -37.63473 144.83155 808 ft 142 kts 175°
2026-05-05 18:23 -37.64442 144.83333 593 ft 140 kts 172°
2026-05-05 18:23 -37.65403 144.83531 485 ft 141 kts 174°
2026-05-05 18:23 -37.66369 144.83701 402 ft 135 kts 174°
2026-05-05 18:24 -37.67175 144.83817 382 ft 92 kts 170°
2026-05-05 18:24 -37.67624 144.83923 366 ft 39 kts 169°
2026-05-05 18:24 -37.67855 144.84013 360 ft 29 kts 126°
2026-05-05 18:24 -37.67866 144.84132 361 ft 13 kts 83°
2026-05-05 18:25 -37.67856 144.84248 363 ft 14 kts 83°
2026-05-05 18:25 -37.67848 144.84335 360 ft 15 kts 83°
2026-05-05 18:25 -37.67809 144.84570 360 ft 17 kts 57°
2026-05-05 18:25 -37.67735 144.84588 360 ft 17 kts 349°
2026-05-05 18:26 -37.67623 144.84564 362 ft 16 kts 352°
2026-05-05 18:26 -37.67516 144.84544 364 ft 16 kts 352°
2026-05-05 18:26 -37.67410 144.84525 364 ft 16 kts 352°
2026-05-05 18:26 -37.67301 144.84507 366 ft 16 kts 356°
2026-05-05 18:27 -37.67206 144.84546 371 ft 13 kts 32°
2026-05-05 18:27 -37.67147 144.84582 367 ft 5 kts
2026-05-05 18:27 -37.67144 144.84582 366 ft 0 kts